Location: Kam�li
(14.6864°N, 3.1482°W)
Time: 02:21:30
(UTC+00:00)

Centaur AC-119 - Pass Details

Date: 29 October 2020
Orbit: 263 x 13990 km, 26.8° (Epoch: 02 December)

Event Time Altitude Azimuth Distance (km) Brightness Sun altitude
Rises 17:59:54 0° 282° (WNW) 7,207 9.4 -4.3°
Reaches altitude 10° 18:07:51 10° 294° (WNW) 4,084 7.6 -6.2°
Maximum altitude 18:14:17 21° 341° (NNW) 1,728 4.9 -7.7°
Drops below altitude 10° 18:17:12 10° 34° (NE) 1,701 4.4 -8.4°
Enters shadow 18:17:46 - 42° (NE) 1,840 4.5 -8.5°
